Regional Weather Roundup
Issued by NWS Charleston, SC

Current Version | Previous Version | Text Only | Print | Product List | Glossary Off
Versions: 1 2 3 4 5 6 7 8 9 10 11 12 13 14 15 16 17 18 19 20 21 22 23 24 25 26 27 28 29 30 31 32 33 34 35 36 37 38 39 40 41 42 43 44 45 46 47 48 49 50

000
ASUS42 KCHS 220910
RWRCHS

REGIONAL WEATHER ROUNDUP
NATIONAL WEATHER SERVICE CHARLESTON SC
500 AM EDT FRI AUG 22 2014

NOTE: "FAIR" INDICATES FEW OR NO CLOUDS BELOW 12,000 FEET WITH NO
SIGNIFICANT WEATHER AND/OR OBSTRUCTIONS TO VISIBILITY.

NOT ALL STATIONS ARE QUALITY CONTROLLED BY THE NATIONAL
WEATHER SERVICE. USE DATA WITH CAUTION...ESPECIALLY
DEWPOINT OBSERVATIONS.

SCZ027-030-031-034>040-042>050-221000-
...SOUTH CAROLINA...

CITY           SKY/WX    TMP DP  RH WIND       PRES   REMARKS
N CHARLESTON   CLEAR     80  77  90 CALM      30.01F
WATERFRONT PRK   N/A     82 N/A N/A W6          N/A
FORT JOHNSON   NOT AVBL
MOUNT PLEASANT FAIR      81  81 100 CALM      30.02S FOG     HX  91
JOHNS ISLAND   SUNNY     81  81 100 CALM      30.02F FOG     HX  91
PINOPOLIS        N/A     82  75  78 SW6       29.94S
MONCKS CORNER    N/A     77  77 100 CALM      30.01F
SUMMERVILLE    NOT AVBL
BEAUFORT MCAS  CLEAR     78  76  93 CALM      30.02F
BEAUFORT ARPT  FAIR      79  79 100 CALM      30.01F
HILTON HEAD IS CLEAR     79  79 100 CALM      30.03S FOG
GEORGETOWN     NOT AVBL
WALTERBORO     MOSUNNY   73 N/A N/A CALM      30.03S
ORANGEBURG     CLEAR     73  70  90 CALM      30.03S
BARNWELL       FAIR      73  70  88 CALM      30.04S
AIKEN          FAIR      73  70  88 CALM      30.07S
MANNING        FAIR      73 N/A N/A CALM      30.01F
KINGSTREE      NOT AVBL
COLUMBIA       CLEAR     75  69  81 CALM      30.00F
SUMTER         CLEAR     78  70  75 SW2       30.00F
FLORENCE       CLEAR     73  70  90 W3        30.00F
MYRTLE BEACH   CLOUDY    79  75  89 W5        30.00F
N MYRTLE BEACH CLEAR     77  76  96 W3        30.00F FOG

$$

GAZ063-065-086>088-099>101-113>116-118-119-134-136>141-150-221000-
...GEORGIA...

CITY           SKY/WX    TMP DP  RH WIND       PRES   REMARKS
SAVANNAH ARPT  CLEAR     78  73  84 CALM      30.03
HUNTER AAF     CLEAR     76  75  97 SW3       30.01S
FORT STEWART   CLEAR     74  71  89 CALM      30.02S
STATESBORO     NOT AVBL
SYLVANIA       SUNNY     73  73  99 CALM      30.04S
CLAXTON        FAIR     N/A N/A N/A CALM      30.03S
THOMSON        CLEAR     72  72 100 CALM      30.09F
AUGUSTA-BUSH   CLEAR     72  70  93 CALM      30.02F
AUGUSTA-DANIEL CLEAR     80  69  69 W3        30.04F
SWAINSBORO     FAIR      75  75 100 CALM      30.05F
VIDALIA          N/A     79  72  78 NW6       30.04F
ALMA           CLEAR     73  71  93 CALM      30.04S
WAYCROSS       CLEAR     78  74  90 W3        30.04S
JESUP            N/A     73  72  94 CALM      30.03F
BRUNSWICK      CLEAR     77  72  83 CALM      30.03S
SAINT SIMONS   CLEAR     77  72  84 W5        30.03S

$$

SCZ027-028-034-036>038-045-046-048>050-GAZ119-141-221000-
...LAKE AND SUPPLEMENTAL COASTAL OBSERVATIONS...

STATION/POSITION TIME  TEMP    WIND        PRES    WAVE   SWELL
                       AIR SEA DIR/SP/G            HT/PER HT/PER/DIR
                 (UTC) (F)     (DEG/KT/KT) (MB)    (FT/S) (FT/S/D)
UPR LAKE MARION  NOT AVBL
WINYAH BAY       0800   81     240/  2     1016.0S
LAKE MURRAY      0800   84     220/  5/  6 1015.6F
ACE BASIN NERRS  0800   78        CALM     1017.0S
FORT PULASKI     0900   82     300/  5/  5 1016.8F
SAPELO ISLAND    0800   80     260/  5     1017.0S

$$

ANZ835-935-AMZ111-154-330-350-352-354-374-450-454-472-221000-
...C-MAN AND BUOY OBSERVATIONS...

STATION/POSITION TIME  TEMP    WIND        PRES    WAVE   SWELL
                       AIR SEA DIR/SP/G            HT/PER HT/PER/DIR
                 (UTC) (F)     (DEG/KT/KT) (MB)    (FT/S) (FT/S/D)
FOLLY BEACH CMAN 0800   82     250/  4/  5 1017.1F
BUOY 41004       0900   84 84  250/ 10/ 14 1015.6F   2/ 8   2/ 8
BUOY 41008       0800   84 85  260/  8/  8 1016.5F   2/ 3   2/130/ 8
5E ST. MARYS GA  0800      82                N/A     2/ 3
FRYING PAN BUOY  NOT AVBL
BUOY 41025       0900   81     240/ 10/ 12 1014.1F   2/ 8   2/ 70/ 8
CAPE LOOKOUT NC  0800   82     270/  9/ 11 1015.4F
BUOY 41002       NOT AVBL
BUOY 41010       0900   84 86  210/  6/  8 1017.8R   2/ 8   2/ 90/ 8
BUOY 41012       NOT AVBL
ST AUGUSTINE FL  0900   77     260/  6/  7 1018.1F
CAPERS NEARSHORE 0800   84     250/ 10/ 12   N/A
FRIPP NEARSHORE  NOT AVBL


$$



USA.gov is the U.S. government's official web portal to all federal, state and local government web resources and services.